Regional Weather Roundup
Issued by NWS

Home | Current Version | Previous Version | Graphics & Text | Print | Product List | Glossary On
Versions: 1 2 3 4 5 6 7 8 9 10 11 12 13 14 15 16 17 18 19 20 21 22 23 24 25 26 27 28 29 30 31 32 33 34 35 36 37 38 39 40 41 42 43 44 45 46 47 48 49 50
000
ASUS43 KIND 231559
RWRIN

WEATHER ROUNDUP FOR INDIANA
NATIONAL WEATHER SERVICE INDIANAPOLIS IN
1100 AM EST SUN NOV 23 2014

NOTE: "FAIR" INDICATES FEW OR NO CLOUDS BELOW 12,000 FEET WITH NO
SIGNIFICANT WEATHER AND/OR OBSTRUCTIONS TO VISIBILITY.

* - STATION DOES NOT REPORT WEATHER SUCH AS PRECIPITATION OR FOG.

+ - STATION NOT QUALITY CONTROLLED BY THE NATIONAL WEATHER SERVICE.
    USE DATA WITH CAUTION...ESPECIALLY DEWPOINT AND RELATIVE
    HUMIDITY OBSERVATIONS.

INZ001>003-010>013-019-020-231700-
NORTHWEST INDIANA

CITY           SKY/WX    TMP DP  RH WIND       PRES   REMARKS
GARY /AIRPORT/ CLOUDY    52  45  76 S12       29.76F
VALPARAISO     NOT AVBL

$$

LMZ046-743>745-231700-
SOUTHERN LAKE MICHIGAN

STATION/POSITION TIME  TEMP WIND        PRES
                       AIR  DIR/SP/G
                 (UTC) (F)  (DEG/KT/KT) (MB)
MICHIGAN CITY    1500   50  150/ 13/ 20   N/A

$$

INZ004-005-014>016-021>024-231700-
NORTH CENTRAL INDIANA

CITY           SKY/WX    TMP DP  RH WIND       PRES   REMARKS
GOSHEN         CLOUDY    51  44  77 S13       29.82F
SOUTH BEND     CLOUDY    51  44  77 SE9       29.81F

$$

INZ006>009-017-018-025>027-231700-
NORTHEAST INDIANA

CITY           SKY/WX    TMP DP  RH WIND       PRES   REMARKS
ANGOLA *+      MOSUNNY   46  36  66 S7        29.86F
FORT WAYNE     CLOUDY    50  44  80 S8        29.86F

$$

INZ028-029-035-036-043>045-051>053-231700-
WEST CENTRAL INDIANA

CITY           SKY/WX    TMP DP  RH WIND       PRES   REMARKS
GREENCASTLE +  CLOUDY    54  45  71 S15G21    29.80F
LAFAYETTE      CLOUDY    53  46  77 S7        29.78F
TERRE HAUTE    CLOUDY    53  46  77 S16       29.79F

$$

INZ030>032-037>040-046>048-054>057-064-065-231700-
CENTRAL INDIANA

CITY           SKY/WX    TMP DP  RH WIND       PRES   REMARKS
CP ATTERBURY + CLOUDY    54  43  66 S10G17    29.84F
COLUMBUS       CLOUDY    55  45  67 S12       29.85F
FRANKFORT +    CLOUDY    54  48  80 SE12      29.80F
INDIANAPOLIS   CLOUDY    54  44  69 SE16      29.80F
-EAGLE CREEK   CLOUDY    54  44  69 SE13G20   29.80F
KOKOMO *+      CLOUDY    50  43  76 S16G22    29.81F
MT COMFORT *+  CLOUDY    54  37  54 S13G18    29.83F
SHELBYVILLE    CLOUDY    56  43  61 SE12      29.83F

$$

INZ033-034-041-042-049-050-058-059-231700-
EAST CENTRAL INDIANA

CITY           SKY/WX    TMP DP  RH WIND       PRES   REMARKS
MUNCIE         CLOUDY    56  45  66 S15       29.84F

$$

INZ060-061-067>069-081>083-085>088-231700-
SOUTHWEST INDIANA

CITY           SKY/WX    TMP DP  RH WIND       PRES   REMARKS
EVANSVILLE     LGT RAIN  52  46  80 SE7       29.79F
HUNTINGBURG *+ CLOUDY    54  48  82 SE9       29.80F

$$

INZ062-063-066-070>080-084-089>092-231700-
SOUTH CENTRAL AND SOUTHEAST INDIANA

CITY           SKY/WX    TMP DP  RH WIND       PRES   REMARKS
BLOOMINGTON    HVY RAIN  50  47  89 S10       29.82F FOG

$$




USA.gov is the U.S. government's official web portal to all federal, state and local government web resources and services.